This is the latest recevied weather packets stored in our database for station/object TULLARI. If no packets are shown the sender has not sent any weather packets the latest 10 day(s).
| Time | Temp. | Humidity | Pressure | Rain* | Wind** | Luminosity | Snow |
|---|---|---|---|---|---|---|---|
| 1777184800 | 3.33° C | 48% | 1004.2 hPa | - | - | - | - |
| 1777183598 | 3.33° C | 51% | 1004.1 hPa | - | - | - | - |
| 1777182399 | 2.78° C | 50% | 1003.7 hPa | - | - | - | - |
| 1777181199 | 2.22° C | 56% | 1003.5 hPa | - | - | - | - |
| 1777179999 | 2.22° C | 56% | 1003.1 hPa | - | - | - | - |
| 1777178799 | 1.67° C | 58% | 1002.9 hPa | - | - | - | - |
| 1777177599 | 1.67° C | 61% | 1002.5 hPa | - | - | - | - |
| 1777176399 | 1.67° C | 62% | 1002.3 hPa | - | - | - | - |
| 1777175199 | 1.67° C | 57% | 1001.9 hPa | - | - | - | - |
| 1777173999 | 1.67° C | 60% | 1001.5 hPa | - | - | - | - |
| 1777172799 | 1.67° C | 59% | 1001.3 hPa | - | - | - | - |
| 1777171598 | 1.67° C | 59% | 1001.1 hPa | - | - | - | - |
| 1777170399 | 1.67° C | 60% | 1000.7 hPa | - | - | - | - |
| 1777169198 | 1.67° C | 58% | 1000.5 hPa | - | - | - | - |
| 1777168000 | 1.67° C | 56% | 1000.1 hPa | - | - | - | - |
| 1777166799 | 1.67° C | 57% | 1000 hPa | - | - | - | - |
| 1777165599 | 1.67° C | 57% | 999.7 hPa | - | - | - | - |
| 1777164399 | 1.67° C | 55% | 999.4 hPa | - | - | - | - |
| 1777163198 | 1.67° C | 54% | 999.2 hPa | - | - | - | - |
| 1777162000 | 1.67° C | 54% | 999.1 hPa | - | - | - | - |
| 1777160799 | 1.67° C | 54% | 998.8 hPa | - | - | - | - |
| 1777159598 | 1.67° C | 54% | 998.6 hPa | - | - | - | - |
| 1777158399 | 1.67° C | 51% | 998.4 hPa | - | - | - | - |
| 1777157199 | 1.67° C | 52% | 998.3 hPa | - | - | - | - |
| 1777155998 | 2.22° C | 52% | 998.3 hPa | - | - | - | - |
* Rain since midnight (hover to see other rain measurements)
** Current wind speed in m/s (hover to see current wind gust speed)